Showing default

LEMUR-2 DELOITTE-3, 68471

Orbit data source: Space-Track

LEMUR-2 DELOITTE-3, 68471 is an American payload satellite in SSO that was launched on Mon, 30 Mar 2026 UTC via an FALCON 9 launch vehicle from the Air Force Western Test Range (AFWTR). Payload-class satellites include a variety of spacecraft equipped with specific instruments for various scientific and technological missions. These include communications satellites like Starlink; space stations such as the ISS; scientific satellites like the Hubble; Earth observation satellites from companies like Planet Labs, Umbra, and HawkEye 360; GPS; miniature CubeSats for education and research; and military/defense satellites.

Loading next visibility...
Identifier
68471, 2026-067BH
Orbit
SSO
Country
Flag of USUS
Related business
Manufacturer
Spire/Glasgow
Mission
Operational Commercial Com/MetRO
Bus & Motor
CUBESAT 6U, Unknown motor
Mass
10 kg wet, 10 kg dry
Launch date (UTC)
2026-03-30 (6 months ago)
Launch vehicle
FALCON 9
Launch site
Air Force Western Test Range (AFWTR)
Object type
Payload
Rocket body
Debris
Shape & HBR
Box, 0.2 m
Radar Cross Section
0.080 m², Medium (>0.1 m² and < 1m²)

Expand to show TLE details & history
Last TLE update: 12 hours ago

TLE from 12 hours ago
0 LEMUR-2 DELOITTE-3
1 68471U 26067BH  26263.11434016  .00002860  00000-0  28598-3 0  9997
2 68471  97.7675 219.8569 0005593  91.6300 268.5560 14.92229324 25883
Epoch: 2026-09-20T02:44Z
TLE epoch observation values (Epoch: 2026-09-20T02:44:38.989Z)
Latitude
-0.00001°
Longitude
179.68128°
Altitude
594.128 km
Speed
7.563 km/s
True Right ascension
14h 39m 25s
True Declination
0° 00' 00"
Sunlit
Object was in daylight at epoch
Visualization orbit readout
Latitude
Unknown
Longitude
Unknown
Altitude
Unknown
Speed
Unknown
Apparent Right ascension
Unknown
Apparent Declination
Unknown
Sunlit
N/A
Visualization observer readout
Local Sidereal Time
07:42:43
Azimuth
Unknown
Elevation
Unknown
Doppler factor
Unknown
Orbital elements
Apogee altitude
591.901 km
Perigee altitude
584.108 km
Semi-major axis
6,966.142 km
Eccentricity
0.00056
Inclination
97.7675°
RAAN
219.8569°
Arg. of periapsis
91.63°
True anomaly
268.49193°
Mean anomaly
268.556°
Eccentric anomaly
268.52397°
Mean motion
3.73297 °/min
Orbital period
96.44 mins
BSTAR
0.00028598
Loading maneuver chart data...
Computing Atmospheric mass density...
Loading historical data...
Loading historical data...
Loading historical data...
Loading historical data...
Loading historical data...
Loading historical data...
Loading historical data...

Documentation

Showing up to 5 results
|